TimeGMT,TemperatureF,Dew PointF,Humidity,Sea Level PressureIn,VisibilityMPH,Wind Direction,Wind SpeedMPH,Gust SpeedMPH,PrecipitationIn,Events,Conditions,WindDirDegrees,DateUTC
8:50 AM,35.6,24.8,65,30.30,6.2,East,24.2,-,N/A,,Mostly Cloudy,90,2013-03-24 08:50:00
9:20 AM,35.6,23.0,60,30.30,6.2,East,24.2,-,N/A,,Mostly Cloudy,90,2013-03-24 09:20:00
9:50 AM,35.6,24.8,65,30.30,6.2,East,24.2,-,N/A,,Mostly Cloudy,90,2013-03-24 09:50:00
10:20 AM,35.6,24.8,65,30.30,6.2,East,24.2,-,N/A,,Mostly Cloudy,90,2013-03-24 10:20:00
10:50 AM,35.6,26.6,70,30.30,6.2,East,21.9,-,N/A,,Mostly Cloudy,100,2013-03-24 10:50:00
11:20 AM,35.6,24.8,65,30.30,6.2,East,26.5,-,N/A,Snow,Light Snow Grains,90,2013-03-24 11:20:00
11:50 AM,35.6,24.8,65,30.30,6.2,East,23.0,-,N/A,Snow,Light Snow Grains,100,2013-03-24 11:50:00
12:20 PM,35.6,28.4,75,30.30,6.2,East,24.2,-,N/A,Snow,Light Snow Grains,100,2013-03-24 12:20:00
12:50 PM,35.6,24.8,65,30.30,6.2,East,24.2,-,N/A,,Mostly Cloudy,100,2013-03-24 12:50:00
1:20 PM,35.6,26.6,70,30.30,6.2,East,21.9,-,N/A,Snow,Light Snow,90,2013-03-24 13:20:00
1:50 PM,35.6,26.6,70,30.30,6.2,ESE,24.2,-,N/A,Snow,Light Snow,110,2013-03-24 13:50:00
2:20 PM,35.6,28.4,75,30.30,6.2,East,20.7,-,N/A,Snow,Light Snow,90,2013-03-24 14:20:00
2:50 PM,35.6,26.6,70,30.30,6.2,East,23.0,-,N/A,,Mostly Cloudy,100,2013-03-24 14:50:00
3:20 PM,35.6,26.6,70,30.30,6.2,East,19.6,-,N/A,,Mostly Cloudy,90,2013-03-24 15:20:00
3:50 PM,35.6,28.4,75,30.30,6.2,East,21.9,-,N/A,,Mostly Cloudy,90,2013-03-24 15:50:00
4:20 PM,35.6,28.4,75,30.30,6.2,East,19.6,-,N/A,,Mostly Cloudy,90,2013-03-24 16:20:00
5:20 PM,35.6,26.6,70,30.30,6.2,East,21.9,-,N/A,,Mostly Cloudy,90,2013-03-24 17:20:00
5:50 PM,35.6,26.6,70,30.30,6.2,East,20.7,-,N/A,,Mostly Cloudy,90,2013-03-24 17:50:00
6:20 PM,35.6,28.4,75,30.33,6.2,East,18.4,-,N/A,,Mostly Cloudy,90,2013-03-24 18:20:00
6:50 PM,35.6,26.6,70,30.30,6.2,East,20.7,-,N/A,,Mostly Cloudy,90,2013-03-24 18:50:00
7:20 PM,35.6,24.8,65,30.33,6.2,East,23.0,-,N/A,,Mostly Cloudy,90,2013-03-24 19:20:00
7:50 PM,35.6,24.8,65,30.33,6.2,East,20.7,-,N/A,,Mostly Cloudy,90,2013-03-24 19:50:00
8:20 PM,35.6,24.8,65,30.33,6.2,East,19.6,-,N/A,,Mostly Cloudy,90,2013-03-24 20:20:00
8:50 PM,35.6,24.8,65,30.33,6.2,East,20.7,-,N/A,,Mostly Cloudy,90,2013-03-24 20:50:00
9:20 PM,35.6,24.8,65,30.33,6.2,East,18.4,-,N/A,,Mostly Cloudy,90,2013-03-24 21:20:00